| time (UTC) | temp F | wind direction | speed knots | gust knots | rain 1hr in | rain 24hr in | rain mn in | humidity % | barometer mb |
| 20260508050021 | 47 | 76 | 2.6 | 5.2 | 0.00 | 0.09 | 0.00 | 83 | 1009.3 |
| 20260508044512 | 47 | 77 | 1.7 | 5.2 | 0.00 | 0.09 | 0.00 | 83 | 1009.3 |
| 20260508043012 | 47 | 79 | 0.9 | 3.5 | 0.00 | 0.09 | 0.00 | 83 | 1009.2 |
| 20260508041510 | 47 | 79 | 1.7 | 5.2 | 0.00 | 0.09 | 0.00 | 83 | 1009.1 |
| 20260508040007 | 48 | 81 | 0.9 | 3.5 | 0.00 | 0.09 | 0.00 | 82 | 1009.1 |
| 20260508034519 | 48 | 81 | 0.0 | 2.6 | 0.00 | 0.09 | 0.00 | 83 | 1009.1 |
| 20260508033005 | 48 | 80 | 3.5 | 7.0 | 0.00 | 0.09 | 0.00 | 83 | 1009.1 |
| 20260508031507 | 48 | 80 | 1.7 | 3.5 | 0.00 | 0.09 | 0.00 | 83 | 1009.3 |
| 20260508030004 | 48 | 80 | 0.0 | 3.5 | 0.00 | 0.09 | 0.00 | 83 | 1009.2 |
| 20260508024505 | 48 | 80 | 1.7 | 4.3 | 0.00 | 0.09 | 0.00 | 83 | 1009.2 |
| 20260508023002 | 48 | 81 | 1.7 | 5.2 | 0.00 | 0.09 | 0.00 | 83 | 1009.2 |
| 20260508021606 | 48 | 81 | 2.6 | 5.2 | 0.00 | 0.09 | 0.00 | 83 | 1009.4 |
| 20260508020058 | 48 | 62 | 5.2 | 9.6 | 0.00 | 0.09 | 0.00 | 83 | 1009.5 |
| 20260508014555 | 49 | 89 | 2.6 | 7.8 | 0.00 | 0.09 | 0.00 | 82 | 1009.7 |
| 20260508013052 | 49 | 82 | 4.3 | 7.8 | 0.00 | 0.09 | 0.00 | 81 | 1009.9 |
| 20260508011552 | 50 | 94 | 1.7 | 5.2 | 0.00 | 0.09 | 0.00 | 80 | 1010.0 |
| 20260508010047 | 50 | 91 | 2.6 | 5.2 | 0.00 | 0.09 | 0.00 | 79 | 1010.0 |
| 20260508004545 | 51 | 90 | 0.9 | 6.1 | 0.00 | 0.09 | 0.00 | 79 | 1010.1 |
| 20260508003044 | 51 | 69 | 3.5 | 8.7 | 0.00 | 0.09 | 0.00 | 80 | 1010.2 |
| 20260508001541 | 51 | 91 | 3.5 | 7.0 | 0.00 | 0.09 | 0.00 | 79 | 1010.2 |
| 20260508000050 | 52 | 169 | 0.9 | 5.2 | 0.00 | 0.09 | 0.00 | 79 | 1010.4 |
| 20260507234543 | 52 | 113 | 2.6 | 5.2 | 0.00 | 0.09 | 0.00 | 79 | 1010.4 |
| 20260507233036 | 52 | 107 | 1.7 | 3.5 | 0.00 | 0.09 | 0.00 | 79 | 1010.6 |
| 20260507231542 | 52 | 104 | 0.9 | 2.6 | 0.00 | 0.09 | 0.00 | 79 | 1010.6 |
| 20260507230032 | 52 | 104 | 0.0 | 0.0 | 0.00 | 0.09 | 0.00 | 78 | 1010.8 |
| 20260507224533 | 52 | 104 | 0.0 | 2.6 | 0.00 | 0.09 | 0.00 | 78 | 1010.9 |
| 20260507223029 | 52 | 104 | 0.9 | 3.5 | 0.00 | 0.09 | 0.00 | 77 | 1010.9 |
| 20260507221530 | 52 | 104 | 0.0 | 3.5 | 0.00 | 0.09 | 0.00 | 76 | 1010.9 |
| 20260507220026 | 52 | 101 | 4.3 | 8.7 | 0.00 | 0.09 | 0.09 | 76 | 1010.7 |
| 20260507214529 | 53 | 107 | 3.5 | 7.8 | 0.00 | 0.09 | 0.09 | 75 | 1010.7 |
| 20260507213025 | 53 | 151 | 1.7 | 4.3 | 0.00 | 0.09 | 0.09 | 74 | 1010.5 |
| 20260507211532 | 54 | 204 | 0.0 | 2.6 | 0.00 | 0.09 | 0.09 | 74 | 1010.7 |
| 20260507210024 | 54 | 204 | 0.0 | 3.5 | 0.00 | 0.09 | 0.09 | 73 | 1010.7 |
| 20260507204638 | 54 | 205 | 1.7 | 6.1 | 0.00 | 0.09 | 0.09 | 72 | 1010.6 |
| 20260507203118 | 55 | 170 | 2.6 | 4.3 | 0.00 | 0.09 | 0.09 | 71 | 1010.6 |
| 20260507201631 | 55 | 171 | 3.5 | 5.2 | 0.00 | 0.09 | 0.09 | 70 | 1010.6 |
| 20260507200126 | 56 | 170 | 5.2 | 7.0 | 0.00 | 0.09 | 0.09 | 68 | 1010.2 |
| 20260507194642 | 57 | 163 | 4.3 | 7.8 | 0.00 | 0.09 | 0.09 | 67 | 1009.9 |
| 20260507193152 | 57 | 145 | 1.7 | 6.1 | 0.00 | 0.09 | 0.09 | 65 | 1009.5 |
| 20260507191649 | 58 | 147 | 3.5 | 7.8 | 0.00 | 0.09 | 0.09 | 65 | 1009.3 |
| 20260507190004 | 59 | 157 | 1.7 | 7.0 | 0.00 | 0.09 | 0.09 | 65 | 1009.2 |
| 20260507184502 | 59 | 134 | 4.3 | 7.8 | 0.00 | 0.09 | 0.09 | 63 | 1009.0 |
| 20260507183001 | 60 | 178 | 3.5 | 9.6 | 0.00 | 0.09 | 0.09 | 62 | 1008.9 |
| 20260507181501 | 60 | 134 | 1.7 | 10.4 | 0.00 | 0.09 | 0.09 | 62 | 1008.8 |
| 20260507180002 | 60 | 94 | 3.5 | 9.6 | 0.00 | 0.09 | 0.09 | 59 | 1008.7 |
| 20260507174636 | 59 | 104 | 2.6 | 9.6 | 0.00 | 0.09 | 0.09 | 61 | 1008.9 |
| 20260507173059 | 59 | 98 | 2.6 | 12.2 | 0.00 | 0.09 | 0.09 | 67 | 1008.8 |
| 20260507171619 | 61 | 111 | 4.3 | 7.8 | 0.00 | 0.09 | 0.09 | 59 | 1008.8 |
| 20260507164558 | 60 | 169 | 1.7 | 6.1 | 0.00 | 0.09 | 0.09 | 62 | 1008.7 |
| 20260507163059 | 57 | 82 | 3.5 | 4.3 | 0.00 | 0.09 | 0.09 | 60 | 1008.6 |
| 20260507161559 | 55 | 57 | 1.7 | 3.5 | 0.01 | 0.09 | 0.09 | 73 | 1008.9 |
| 20260507160117 | 54 | 57 | 2.6 | 9.6 | 0.02 | 0.09 | 0.09 | 79 | 1008.7 |
| 20260507154557 | 53 | 23 | 3.5 | 7.8 | 0.03 | 0.09 | 0.09 | 83 | 1009.2 |
| 20260507153055 | 53 | 115 | 0.0 | 3.5 | 0.06 | 0.09 | 0.09 | 84 | 1009.7 |
| 20260507151559 | 52 | 165 | 0.0 | 2.6 | 0.04 | 0.08 | 0.08 | 83 | 1009.9 |
| 20260507150055 | 52 | 165 | 2.6 | 5.2 | 0.04 | 0.07 | 0.07 | 82 | 1009.8 |
| 20260507144554 | 52 | 187 | 5.2 | 9.6 | 0.03 | 0.06 | 0.06 | 79 | 1009.8 |
| 20260507143101 | 54 | 168 | 9.6 | 17.4 | 0.01 | 0.04 | 0.04 | 73 | 1009.5 |
| 20260507141608 | 57 | 149 | 12.2 | 19.1 | 0.01 | 0.04 | 0.04 | 63 | 1009.2 |
| 20260507140111 | 63 | 171 | 8.7 | 14.8 | 0.00 | 0.03 | 0.03 | 52 | 1008.9 |
| 20260507134555 | 64 | 78 | 1.7 | 7.0 | 0.00 | 0.03 | 0.03 | 51 | 1008.2 |
| 20260507133059 | 63 | 53 | 2.6 | 7.0 | 0.00 | 0.03 | 0.03 | 54 | 1008.1 |
| 20260507131615 | 62 | 38 | 2.6 | 7.0 | 0.02 | 0.03 | 0.03 | 56 | 1008.1 |
| 20260507130049 | 62 | 35 | 1.7 | 7.8 | 0.03 | 0.03 | 0.03 | 59 | 1008.3 |
| 20260507124554 | 62 | 332 | 1.7 | 5.2 | 0.03 | 0.03 | 0.03 | 61 | 1008.4 |
| 20260507123050 | 61 | 350 | 0.9 | 7.8 | 0.03 | 0.03 | 0.03 | 64 | 1008.4 |
| 20260507121545 | 63 | 262 | 3.5 | 6.1 | 0.01 | 0.01 | 0.01 | 63 | 1008.9 |
| 20260507120045 | 65 | 273 | 1.7 | 6.1 | 0.00 | 0.00 | 0.00 | 57 | 1009.1 |
| 20260507114542 | 66 | 280 | 2.6 | 7.8 | 0.00 | 0.00 | 0.00 | 51 | 1009.1 |
| 20260507113104 | 67 | 211 | 0.9 | 4.3 | 0.00 | 0.00 | 0.00 | 46 | 1009.1 |
| 20260507111539 | 67 | 171 | 1.7 | 4.3 | 0.00 | 0.00 | 0.00 | 49 | 1009.3 |
| 20260507110039 | 65 | 156 | 1.7 | 8.7 | 0.00 | 0.00 | 0.00 | 52 | 1009.7 |
| 20260507104535 | 65 | 109 | 2.6 | 8.7 | 0.00 | 0.00 | 0.00 | 51 | 1009.8 |
| 20260507103032 | 64 | 165 | 1.7 | 7.8 | 0.00 | 0.00 | 0.00 | 54 | 1010.0 |
| 20260507101528 | 63 | 180 | 0.9 | 5.2 | 0.00 | 0.00 | 0.00 | 58 | 1010.1 |
| 20260507100033 | 62 | 169 | 1.7 | 8.7 | 0.00 | 0.00 | 0.00 | 58 | 1010.2 |
| 20260507094520 | 61 | 164 | 3.5 | 7.0 | 0.00 | 0.00 | 0.00 | 60 | 1010.4 |
| 20260507093017 | 60 | 150 | 1.7 | 7.8 | 0.00 | 0.00 | 0.00 | 61 | 1010.4 |
| 20260507091516 | 59 | 167 | 3.5 | 7.8 | 0.00 | 0.00 | 0.00 | 62 | 1010.5 |
| 20260507090011 | 58 | 190 | 3.5 | 7.0 | 0.00 | 0.00 | 0.00 | 66 | 1010.4 |
| 20260507084512 | 56 | 82 | 2.6 | 7.0 | 0.00 | 0.00 | 0.00 | 69 | 1010.6 |
| 20260507083005 | 54 | 84 | 0.0 | 8.7 | 0.00 | 0.00 | 0.00 | 74 | 1010.6 |
| 20260507081559 | 52 | 115 | 2.6 | 7.0 | 0.00 | 0.00 | 0.00 | 76 | 1010.6 |
| 20260507080059 | 51 | 82 | 6.1 | 9.6 | 0.00 | 0.00 | 0.00 | 77 | 1010.7 |
| 20260507074559 | 51 | 58 | 6.1 | 11.3 | 0.00 | 0.00 | 0.00 | 76 | 1010.7 |
| 20260507073106 | 51 | 78 | 2.6 | 7.0 | 0.00 | 0.00 | 0.00 | 78 | 1010.7 |
| 20260507071556 | 50 | 48 | 3.5 | 7.8 | 0.00 | 0.00 | 0.00 | 81 | 1010.8 |
| 20260507070107 | 49 | 35 | 2.6 | 5.2 | 0.00 | 0.00 | 0.00 | 81 | 1010.9 |
| 20260507064600 | 49 | 35 | 1.7 | 4.3 | 0.00 | 0.00 | 0.00 | 83 | 1011.0 |
| 20260507063056 | 48 | 35 | 0.0 | 3.5 | 0.00 | 0.00 | 0.00 | 85 | 1011.0 |
| 20260507061555 | 46 | 35 | 0.9 | 3.5 | 0.00 | 0.00 | 0.00 | 86 | 1011.0 |
| 20260507060054 | 45 | 35 | 1.7 | 7.0 | 0.00 | 0.00 | 0.00 | 87 | 1010.7 |
| 20260507054553 | 45 | 38 | 3.5 | 7.0 | 0.00 | 0.00 | 0.00 | 87 | 1010.7 |
| 20260507053052 | 45 | 32 | 2.6 | 7.8 | 0.00 | 0.00 | 0.00 | 87 | 1010.9 |
| 20260507051559 | 45 | 25 | 4.3 | 9.6 | 0.00 | 0.00 | 0.00 | 87 | 1010.8 |